Location: Unspecified
(44.0704°N, 88.6889°W)
Time: 00:41:22
(UTC+02:00)

Transit 2A - Pass Details

Date: 23 June 2019
Orbit: 594 x 964 km, 66.7° (Epoch: 19 July)

Event Time Altitude Azimuth Distance (km) Brightness Sun altitude
Rises 10:17:45 0° 270° (W) 3,648 - -15.2°
Exits shadow 10:17:46 - 270° (W) 3,641 9.2 -15.2°
Reaches altitude 10° 10:21:27 10° 290° (WNW) 2,693 8.7 -14.8°
Maximum altitude 10:25:16 16° 328° (NNW) 2,237 8.7 -14.4°
Drops below altitude 10° 10:29:02 10° 6° (N) 2,622 9.7 -14.0°
Sets 10:32:34 0° 27° (NNE) 3,507 11.3 -13.7°
